Location: Unspecified
(0.0000°N, 0.0000°E)
Time: 05:19:10
(UTC+00:00)

Courier 1B - Visible Passes

Search period start: 21 May 2026 00:00
Search period end: 31 May 2026 00:00
Orbit: 962 x 1209 km, 28.3° (Epoch: 20 May)

Date Brightness Start Highest point End Pass type
(mag) Time Alt. Az. Time Alt. Az. Time Alt. Az.
21 May 8.9 03:03:43 32° NE 03:03:43 32° NE 03:07:09 10° NE visible
21 May 9.3 04:50:36 10° WNW 04:54:58 19° NNW 04:59:35 10° NNE visible
22 May 10.3 02:13:12 10° ENE 02:13:12 10° ENE 02:13:17 10° ENE visible
22 May 8.8 04:00:05 25° NW 04:00:53 26° NNW 04:06:17 10° NNE visible
23 May 9.1 03:09:32 26° NNE 03:09:32 26° NNE 03:12:50 10° NE visible
23 May 9.8 05:00:35 10° NNW 05:01:45 10° NNW 05:02:57 10° N visible
24 May 10.2 02:18:56 12° NE 02:18:56 12° NE 02:19:17 10° NE visible
24 May 9.5 04:05:49 13° NW 04:07:31 14° NNW 04:10:53 10° N visible
25 May 9.5 03:15:11 17° N 03:15:11 17° N 03:17:56 10° NNE visible
26 May 10.2 02:24:32 11° NNE 02:24:32 11° NNE 02:24:45 10° NNE visible
27 May 9.8 03:20:43 10° NNW 03:20:43 10° NNW 03:21:28 10° N visible
30 May 9.6 19:50:21 10° SSW 19:52:16 14° S 19:52:16 14° S visible
